Regional Weather Roundup
Issued by NWS

Home | Current Version | Previous Version | Text Only | Print | Product List | Glossary Off
Versions: 1 2 3 4 5 6 7 8 9 10 11 12 13 14 15 16 17 18 19 20 21 22 23 24 25 26 27 28 29 30 31 32 33 34 35 36 37 38 39 40 41 42 43 44 45 46 47 48 49 50

000
ASUS43 KLSX 180307
RWRMO

WEATHER SUMMARY FOR MISSOURI
NATIONAL WEATHER SERVICE SPRINGFIELD MO
1000 PM CDT WED SEP 17 2014

NOTE: "FAIR" INDICATES FEW OR NO CLOUDS BELOW 12,000 FEET WITH NO
       SIGNIFICANT WEATHER AND/OR OBSTRUCTIONS TO VISIBILITY.
       CURRENT SKY AND/OR WEATHER CONDITIONS ARE NOT AVAILABLE FOR
       CHILLICOTHE AND FARMINGTON.

MOZ001>031-035>038-043-044-053-054-180400-
...NORTHERN AND WESTERN MISSOURI...

CITY           SKY/WX    TMP DP  RH WIND       PRES   REMARKS
KANSAS CTY INT CLEAR     66  63  90 E6        29.94R
KANSAS C DTWN  CLEAR     67  64  90 E6        29.93R
LEE`S SUMMIT   CLEAR     66  64  93 NE6       29.94R
ST JOSEPH      CLEAR     65  64  97 CALM      29.94R
CHILLICOTHE      N/A     66  62  87 E5        29.97R
KIRKSVILLE     CLEAR     61  58  90 E5        30.00R

$$
MOZ066>068-077>081-088>096-101>105-180400-
...SOUTHWEST MISSOURI...

CITY           SKY/WX    TMP DP  RH WIND       PRES   REMARKS
SPRINGFIELD    MOCLDY    65  63  93 E3        29.94R
JOPLIN         PTCLDY    68  63  84 S5        29.91R

$$
MOZ032>034-039>042-045>050-055>058-069>072-180400-
...CENTRAL MISSOURI...

CITY           SKY/WX    TMP DP  RH WIND       PRES   REMARKS
COLUMBIA         N/A    N/A N/A N/A MISG        N/A
JEFFERSON CITY CLOUDY    63  61  93 NE7       29.96R
ROLLA          CLOUDY    62  61  96 CALM      29.95R FOG
SEDALIA        MOCLDY    65  62  90 E7        29.96R FOG
OSAGE BEACH    CLOUDY    66  63  88 E5        29.95R

$$
MOZ051-052-059>065-180400-
...EAST CENTRAL MISSOURI...

CITY           SKY/WX    TMP DP  RH WIND       PRES   REMARKS
ST LOUIS INTL  CLOUDY    63  55  75 CALM      30.00R
SPIRIT OF STL  CLOUDY    62  58  86 E5        29.98R
ST CHARLES     CLOUDY    61  57  87 NE3       29.99R

$$
MOZ072>076-082>087-097>100-106>115-180400-
...SOUTH CENTRAL AND SOUTHEAST MISSOURI...

CITY           SKY/WX    TMP DP  RH WIND       PRES   REMARKS
CAPE GIRARDEAU PTCLDY    57  56  96 CALM      29.98R
FARMINGTON     MOCLDY    57  55  94 CALM      30.00R
POPLAR BLUFF   CLOUDY    63  58  83 CALM      29.97R
WEST PLAINS    CLOUDY    62  61  96 E6        29.99R FOG

$$


USA.gov is the U.S. government's official web portal to all federal, state and local government web resources and services.